Live-Position
3D-Globus wird geladen...
Über Starlink 3682
Group: 3 satellites
Beschreibung wird geladen...
Nächste Überflüge
Passes for default location (London). Set your location on the main map for personalized predictions.
Höhenverlauf
Loading altitude history...
No altitude history available
Zweizeiliger Elementsatz
1 52140U 22029BE 26104.61772872 .00000188 00000-0 29872-4 0 9999
2 52140 53.2169 267.8304 0001263 90.0582 270.0555 15.08834310226362
Epoch: 14. Apr. 2026 •
Age: 13 hours
Aktueller Status
Höhe 547.6 km
Geschwindigkeit 7.59 km/s
Subsatellitenpunkt -25.16°S,
9.31°W
Startdatum 19. März 2022
Alter 4 years
Typ internet
Startgruppe
Falcon 9 •
Group 4-12 •
43 satellites
Starlink 3712
52090
Starlink 3716 52092
Starlink 3673 52093
Starlink 3714 52094
Starlink 3701 52095
Starlink 3717 52096
Starlink 3665 52098
Starlink 3702 52100
Starlink 3703 52101
Starlink 3709 52102
Starlink 3705 52103
Starlink 3706 52105
Starlink 3670 52106
Starlink 3658 52107
Starlink 3698 52108
Starlink 3687 52110
Starlink 3708 52111
Starlink 3734 52112
Starlink 3736 52113
Starlink 3737 52114
...and 22 more
Technische Details
Klassifizierung Payload
Masse 297.00 kg
Trockenmasse 275.00 kg
Gesamtmasse 297.00 kg
Länge 0.20 m
Durchmesser 2.80 m
Spannweite 9.00 m
Form Box + pan
Hersteller SPXS
Bus-Typ Starlink
Phasenstatus In Orbit
Besitzer/Staat SPXS/US
Most Searched
Loading...